Temp
-1 -2 -3 -4 -5 -5 -5 -5 -5 -4 -4 -5 -5 -2 -2 -0 -0 0 1 2 3 3 3 3 3 3 3 3 4 4 4 5 5 5 5 5 5 5 5 5 5 5 4 4
-2 -3 -4 -4 -4 -5 -4 -5 -4 -4 -4 -5 -4 -3 -2 -0 1 1 1 2 2 2 2 2 1 3 3 3 3 4 4 5 5 6 6 4 5 5 5 5 5 5 4 4
-3 -4 -4 -4 -5 -5 -4 -5 -5 -5 -5 -4 -4 -4 -3 -0 -1 -1 -1 -0 1 2 2 2 2 2 3 3 3 3 3 4 5 5 5 5 4 4 5 5 5 5 4 4
-3 -4 -4 -4 -5 -6 -6 -5 -5 -5 -6 -6 -6 -6 -1 -1 -1 -1 -1 -2 -1 -1 0 1 2 2 2 3 3 3 3 3 4 4 5 5 4 4 4 4 4 4 4 4
-3 -4 -4 -4 -6 -6 -6 -5 -5 -5 -6 -7 -5 -6 -0 -1 -1 -1 -2 -1 -1 -1 -1 -1 1 2 2 2 3 3 3 3 3 4 4 5 4 4 4 3 3 3 3 3
-3 -4 -4 -5 -6 -6 -6 -6 -4 -4 -5 -7 -4 -5 -2 -2 -2 -2 -2 -1 -1 -1 -1 -1 -0 1 2 2 3 3 3 3 3 3 4 4 4 4 3 3 4 3 3 2
-2 -4 -5 -5 -5 -5 -6 -6 -9 -8 -10 -9 -3 -4 -2 -2 -3 -2 -2 -2 -1 -1 -1 -1 -1 0 1 1 2 3 2 3 3 3 3 4 4 4 2 3 3 3 2 1
-7 -5 -4 -5 -6 -7 -7 -7 -7 -7 -9 -6 -5 -6 -1 -2 -3 -3 -2 -2 -2 -1 -1 -0 -0 -0 1 1 2 1 2 2 3 3 3 4 4 3 3 1 1 2 2 1
-8 -6 -4 -5 -7 -7 -6 -7 -7 -7 -6 -7 -5 -3 -2 -3 -3 -2 -2 -2 -2 -2 -1 -0 -0 -1 -0 0 1 2 1 1 2 1 2 3 4 3 3 2 0 0 1 0
-9 -9 -4 -5 -6 -6 -7 -7 -7 -7 -7 -7 -5 -4 -3 -3 -3 -4 -4 -3 -3 -2 -1 -1 0 -0 -1 -0 1 1 1 1 1 1 2 2 3 2 3 2 1 1 0 -1
-8 -10 -5 -5 -7 -7 -6 -7 -8 -8 -7 -6 -6 -4 -3 -5 -6 -6 -5 -5 -4 -3 -2 -1 -0 1 0 -0 0 0 1 1 1 1 1 2 1 1 2 2 2 0 -1 -2
-8 -10 -9 -5 -6 -6 -7 -8 -8 -8 -7 -7 -7 -6 -4 -5 -6 -7 -6 -6 -6 -4 -2 -1 -0 0 0 0 0 1 1 1 1 1 1 1 0 1 2 2 1 0 -1 -0
-8 -9 -9 -6 -6 -6 -7 -7 -8 -8 -8 -8 -7 -5 -5 -6 -6 -6 -7 -7 -6 -6 -5 -3 -2 -0 1 0 1 1 1 1 1 1 1 1 1 1 2 2 1 0 -1 -1
-9 -9 -9 -9 -8 -9 -8 -6 -7 -7 -8 -7 -7 -7 -6 -6 -7 -6 -7 -8 -8 -7 -6 -7 -4 -1 1 1 1 1 1 0 1 0 -0 1 1 2 2 1 -0 -0 -1 -4
-9 -8 -8 -8 -7 -7 -8 -7 -7 -7 -7 -7 -7 -7 -7 -7 -8 -9 -9 -9 -8 -8 -7 -6 -5 -3 -0 0 1 0 -0 -1 -1 -0 0 0 1 1 1 0 -1 -2 -3 -4
-8 -8 -9 -5 -6 -7 -6 -6 -7 -7 -7 -6 -7 -7 -8 -7 -8 -8 -9 -9 -8 -7 -6 -5 -4 -2 -1 -1 -0 -1 -1 -0 -0 1 -0 -0 1 0 0 -1 -2 -2 -4 -5
-8 -9 -10 -7 -6 -5 -6 -6 -7 -7 -7 -7 -7 -7 -7 -6 -7 -8 -8 -9 -8 -7 -6 -4 -3 -2 -1 -1 -1 -1 -1 -1 -0 -1 -1 -1 -1 -2 -2 -3 -3 -4 -5 -5
-7 -9 -10 -8 -7 -10 -5 -6 -7 -6 -6 -7 -7 -7 -7 -6 -7 -7 -8 -8 -8 -7 -5 -4 -3 -2 -2 -2 -1 -1 -2 -1 -1 -1 -2 -3 -3 -3 -4 -4 -5 -5 -5 -5
-7 -9 -10 -11 -11 -7 -5 -6 -6 -6 -6 -7 -7 -7 -7 -6 -6 -7 -7 -7 -8 -7 -6 -5 -4 -3 -3 -2 -2 -3 -3 -3 -3 -3 -3 -4 -4 -4 -5 -5 -4 -5 -6 -6
-7 -9 -11 -11 -11 -14 -5 -6 -6 -6 -6 -6 -6 -5 -6 -5 -5 -6 -7 -7 -7 -6 -6 -6 -5 -5 -5 -5 -4 -4 -4 -4 -4 -4 -5 -5 -5 -5 -5 -5 -5 -6 -6 -7
-7 -9 -11 -12 -12 -6 -5 -5 -5 -6 -6 -6 -5 -5 -5 -5 -6 -6 -6 -6 -6 -6 -6 -6 -6 -6 -6 -6 -5 -5 -5 -5 -5 -5 -6 -5 -5 -5 -6 -5 -6 -7 -7 -7
-8 -8 -8 -10 -12 -8 -5 -5 -5 -6 -6 -5 -5 -5 -5 -5 -5 -5 -5 -5 -6 -6 -7 -6 -6 -6 -6 -6 -6 -5 -5 -5 -6 -5 -5 -5 -6 -6 -6 -7 -7 -7 -7 -7
-7 -6 -6 -6 -5 -5 -5 -4 -4 -5 -5 -5 -5 -5 -4 -4 -4 -5 -5 -5 -5 -5 -5 -5 -5 -5 -5 -6 -6 -6 -5 -6 -6 -6 -6 -6 -6 -7 -7 -7 -7 -7 -8 -8
-5 -6 -7 -6 -4 -4 -4 -4 -4 -4 -5 -5 -4 -4 -4 -4 -4 -4 -4 -4 -4 -4 -5 -5 -5 -5 -5 -5 -6 -7 -7 -7 -7 -7 -7 -7 -7 -7 -7 -7 -7 -7 -8 -8
-5 -6 -5 -4 -3 -4 -4 -4 -4 -4 -4 -5 -4 -4 -4 -4 -4 -4 -4 -4 -5 -5 -5 -5 -5 -5 -5 -5 -6 -6 -6 -7 -7 -6 -7 -7 -7 -7 -7 -8 -7 -7 -8 -9
-2 -2 -3 -3 -3 -3 -3 -4 -4 -4 -4 -4 -4 -4 -4 -4 -4 -4 -4 -4 -4 -4 -5 -6 -6 -6 -6 -6 -6 -6 -6 -7 -7 -7 -7 -7 -7 -8 -8 -8 -8 -9 -9 -9
Height
3085 3083 3079 3077 3074 3072 3068 3064 3058 3055 3052 3043 3038 3026 3027 3028 3027 3025 3026 3028 3029 3030 3038 3043 3046 3053 3057 3062 3064 3066 3071 3076 3078 3080 3082 3085 3088 3091 3093 3096 3100 3103 3105 3107
3086 3082 3078 3076 3073 3070 3066 3061 3056 3049 3047 3041 3031 3019 3018 3017 3017 3015 3015 3015 3018 3023 3029 3034 3038 3042 3045 3051 3055 3059 3062 3067 3070 3073 3076 3079 3082 3085 3088 3091 3094 3096 3099 3102
3082 3081 3077 3072 3069 3066 3064 3059 3054 3048 3041 3036 3027 3013 3012 3014 3011 3008 3009 3007 3007 3009 3016 3023 3029 3032 3035 3040 3045 3050 3055 3059 3062 3065 3066 3071 3074 3076 3080 3084 3087 3089 3093 3095
3082 3078 3074 3070 3068 3064 3060 3057 3051 3044 3040 3034 3030 3020 3010 3009 3008 3006 3004 3001 2998 2997 3001 3011 3018 3022 3026 3029 3037 3042 3047 3050 3053 3053 3060 3064 3068 3071 3076 3079 3082 3083 3087 3089
3082 3075 3071 3068 3066 3063 3059 3053 3046 3040 3034 3033 3024 3026 3006 3007 3004 3002 3000 2998 2996 2994 2994 2995 2996 3004 3016 3019 3026 3031 3036 3040 3042 3046 3053 3058 3059 3064 3069 3071 3076 3077 3080 3082
3078 3074 3070 3066 3063 3060 3055 3050 3041 3034 3031 3031 3023 3024 3004 3004 3001 2999 2997 2995 2993 2993 2992 2991 2990 2993 3001 3010 3014 3020 3025 3030 3032 3038 3046 3050 3051 3058 3062 3065 3069 3071 3074 3075
3077 3072 3068 3065 3060 3056 3053 3049 3041 3040 3035 3030 3022 3020 3003 3001 2999 2996 2992 2991 2989 2986 2986 2985 2984 2984 2990 2997 3002 3010 3012 3017 3023 3028 3037 3041 3046 3051 3055 3059 3062 3064 3067 3069
3076 3069 3068 3065 3062 3056 3052 3052 3050 3042 3038 3021 3017 3011 3002 2998 2996 2993 2990 2986 2984 2982 2977 2978 2977 2977 2980 2986 2991 2996 3006 3011 3014 3023 3029 3032 3039 3044 3047 3051 3054 3057 3060 3062
3079 3067 3066 3064 3060 3057 3052 3051 3048 3039 3031 3025 3011 3006 3001 2996 2993 2989 2984 2980 2974 2970 2968 2967 2968 2969 2972 2977 2983 2987 2995 3004 3009 3014 3019 3028 3032 3037 3040 3043 3047 3049 3053 3056
3081 3069 3062 3060 3056 3055 3053 3052 3047 3043 3035 3023 3008 3004 2997 2993 2986 2981 2973 2967 2962 2958 2956 2957 2957 2960 2964 2968 2974 2980 2987 2995 3001 3009 3015 3021 3026 3030 3034 3036 3038 3041 3046 3048
3079 3075 3062 3059 3056 3053 3052 3050 3047 3044 3037 3026 3015 3002 2996 2992 2985 2972 2964 2958 2951 2947 2944 2943 2945 2948 2954 2960 2966 2972 2978 2984 2991 3001 3008 3015 3019 3023 3027 3028 3031 3035 3038 3038
3076 3071 3063 3056 3053 3052 3051 3047 3043 3041 3035 3029 3021 3000 2994 2990 2978 2967 2956 2949 2941 2936 2931 2930 2932 2936 2944 2951 2959 2964 2970 2977 2985 2996 3002 3010 3013 3016 3020 3023 3025 3028 3030 3033
3075 3070 3063 3055 3056 3052 3046 3044 3040 3038 3031 3023 3018 3001 2995 2983 2970 2961 2948 2939 2929 2922 2919 2917 2919 2925 2935 2944 2951 2958 2964 2971 2980 2988 2996 3001 3006 3010 3013 3016 3019 3021 3024 3026
3072 3068 3067 3063 3056 3052 3043 3041 3039 3035 3029 3020 3014 2998 2984 2974 2962 2951 2941 2930 2921 2914 2910 2908 2911 2917 2928 2937 2945 2952 2960 2967 2975 2982 2988 2995 2999 3004 3005 3007 3009 3013 3018 3023
3070 3065 3061 3055 3049 3047 3043 3039 3035 3031 3026 3021 3009 2998 2987 2974 2961 2950 2938 2926 2917 2910 2907 2907 2910 2915 2925 2934 2942 2948 2955 2963 2970 2976 2983 2990 2992 2998 2998 3005 3006 3010 3016 3024
3066 3063 3058 3048 3047 3044 3038 3038 3035 3029 3024 3017 3008 2998 2988 2972 2961 2948 2936 2924 2915 2910 2908 2909 2913 2918 2926 2933 2940 2946 2949 2957 2964 2970 2977 2980 2990 2994 2998 3004 3009 3013 3018 3025
3064 3061 3057 3047 3043 3038 3038 3037 3034 3029 3023 3017 3008 2998 2983 2971 2960 2949 2937 2925 2918 2914 2913 2915 2918 2923 2929 2935 2940 2945 2948 2954 2961 2963 2974 2979 2986 2989 2994 3003 3009 3015 3021 3026
3063 3060 3058 3049 3043 3043 3038 3036 3033 3027 3023 3017 3008 2996 2986 2976 2965 2956 2944 2931 2924 2920 2920 2921 2923 2928 2932 2934 2941 2943 2948 2954 2960 2966 2973 2982 2986 2992 2998 3006 3010 3017 3022 3028
3061 3059 3058 3054 3048 3041 3037 3034 3031 3027 3024 3016 3008 2999 2989 2981 2970 2963 2952 2942 2933 2929 2928 2929 2931 2934 2935 2939 2943 2948 2951 2958 2964 2972 2979 2986 2993 2997 3004 3009 3014 3020 3025 3029
3059 3058 3060 3055 3052 3045 3037 3034 3031 3027 3023 3019 3012 3003 2993 2984 2974 2968 2962 2957 2949 2942 2941 2940 2942 2943 2945 2948 2953 2956 2960 2967 2973 2979 2987 2994 2999 3005 3009 3012 3016 3021 3028 3029
3056 3054 3054 3054 3052 3038 3035 3034 3031 3030 3031 3021 3014 3007 3000 2991 2985 2979 2975 2970 2965 2961 2959 2958 2958 2959 2959 2963 2968 2970 2974 2978 2984 2989 2993 2998 3003 3008 3013 3016 3020 3023 3025 3026
3054 3052 3049 3048 3048 3038 3035 3035 3034 3032 3028 3023 3017 3012 3006 3001 2995 2990 2985 2981 2978 2974 2973 2972 2972 2972 2974 2978 2981 2982 2985 2989 2993 2998 3003 3006 3009 3012 3016 3018 3020 3022 3024 3027
3047 3046 3044 3044 3036 3034 3033 3033 3032 3030 3027 3025 3020 3015 3010 3006 3002 2998 2994 2992 2990 2988 2987 2986 2986 2986 2987 2988 2992 2995 2997 3000 3003 3006 3008 3011 3013 3016 3017 3017 3020 3023 3025 3025
3039 3039 3035 3035 3031 3030 3029 3030 3030 3030 3027 3026 3022 3018 3012 3008 3006 3005 3003 3001 2999 2998 2997 2997 2998 2999 2999 2999 3000 3003 3005 3005 3008 3010 3013 3014 3015 3016 3018 3019 3022 3023 3024 3024
3035 3031 3028 3026 3025 3025 3026 3028 3029 3030 3028 3025 3024 3020 3017 3014 3012 3010 3008 3006 3005 3004 3004 3004 3004 3005 3005 3006 3006 3007 3009 3010 3012 3014 3015 3016 3018 3020 3021 3021 3021 3021 3022 3021
3025 3023 3022 3022 3021 3020 3022 3025 3027 3028 3028 3028 3025 3023 3021 3018 3016 3014 3012 3010 3009 3008 3007 3008 3009 3010 3011 3011 3012 3013 3014 3016 3016 3017 3017 3018 3019 3019 3020 3019 3019 3019 3019 3018
Wind_Speed
16 20 19 19 15 16 22 26 29 27 23 28 34 42 39 36 41 50 48 44 50 50 58 62 60 54 49 41 39 37 38 36 37 35 35 32 32 33 34 34 32 32 32 30
15 16 17 16 17 19 17 20 23 27 29 31 35 43 42 31 22 25 34 44 48 47 47 42 38 48 51 51 43 38 37 37 38 38 36 34 32 33 34 32 31 31 30 29
15 18 17 19 15 14 13 17 26 32 31 32 32 35 3 15 12 11 12 17 30 46 44 46 46 33 39 48 45 40 37 34 37 38 37 34 32 35 34 31 30 31 30 30
10 18 18 18 13 16 21 24 31 32 33 20 25 9 22 8 14 9 15 15 15 21 32 45 50 48 41 39 43 41 39 37 34 40 37 34 36 35 30 25 28 27 29 31
21 17 17 12 16 16 28 25 29 39 35 23 14 6 19 14 13 21 17 16 14 14 16 24 56 53 47 42 41 45 43 39 38 37 35 35 36 34 29 28 32 28 32 33
23 14 14 20 19 23 22 23 30 15 7 3 7 3 27 10 22 19 15 18 20 15 16 19 24 51 52 43 46 39 46 43 40 36 34 34 37 31 30 32 30 28 33 33
24 10 22 9 25 16 19 24 7 5 2 6 6 13 25 27 25 15 18 22 23 28 23 20 22 31 53 53 48 45 40 46 41 37 34 34 35 32 31 34 30 33 33 33
17 14 23 18 15 21 28 11 7 5 3 14 21 10 10 18 13 21 25 34 29 27 29 26 26 21 40 52 58 48 43 38 42 38 35 36 35 33 33 35 35 37 36 33
12 14 22 11 20 11 9 16 23 11 15 8 7 11 20 23 25 28 32 35 41 29 22 29 31 30 27 37 51 60 48 45 40 36 27 30 35 33 36 38 38 36 33 33
12 21 16 27 9 9 14 15 12 12 5 5 7 14 16 28 37 37 42 47 40 36 29 24 33 35 30 33 37 50 52 50 41 38 31 28 31 31 34 36 42 36 33 36
19 9 22 22 9 11 9 12 15 12 10 4 6 8 24 25 42 49 44 39 38 40 34 26 31 37 39 36 27 34 45 53 46 39 36 32 33 32 30 39 38 36 38 31
17 12 19 23 2 2 11 19 20 5 6 20 14 13 9 46 42 40 41 39 44 38 33 30 27 36 36 34 34 25 36 44 42 37 36 35 35 31 34 43 37 41 29 32
15 7 14 12 3 14 23 21 23 24 14 16 6 13 43 41 41 37 40 47 39 33 25 26 25 32 36 30 37 35 32 37 38 35 34 33 31 35 40 40 46 39 40 46
14 12 13 14 24 24 26 16 17 21 13 15 20 40 46 49 42 42 44 41 29 24 18 15 16 26 33 32 35 29 34 31 32 31 32 35 36 35 44 44 42 35 41 23
15 16 18 27 17 13 21 20 21 27 18 12 32 38 45 47 35 36 41 30 21 13 6 6 12 22 26 25 28 28 28 30 30 26 31 36 40 43 36 44 35 30 20 18
17 11 22 22 10 23 24 9 17 25 18 24 31 40 43 39 31 38 37 28 20 11 6 10 18 23 20 19 21 27 29 34 32 33 31 42 33 36 39 32 20 13 17 18
14 13 18 10 23 16 6 13 19 17 21 22 33 40 45 42 31 38 40 29 21 11 12 15 16 22 20 22 21 19 20 23 22 28 23 37 38 30 21 19 19 20 22 21
13 14 9 17 19 3 6 15 23 18 21 24 36 40 42 38 27 32 38 33 23 16 17 17 18 18 15 17 15 7 13 13 19 22 20 24 25 25 24 24 24 25 21 17
12 11 8 7 13 17 2 18 24 18 16 31 39 38 39 40 32 32 35 38 31 22 21 17 18 19 19 15 18 18 20 17 24 30 31 29 26 28 28 28 26 21 17 12
13 9 7 6 5 4 4 15 18 15 11 33 33 33 37 39 39 34 32 32 37 36 32 28 26 31 33 33 32 35 37 36 34 33 33 33 32 30 28 24 22 17 14 9
11 11 15 16 9 12 5 11 15 9 17 29 30 27 29 33 34 28 28 29 33 35 38 38 37 37 38 34 31 34 35 35 35 34 34 32 29 26 23 19 16 11 8 4
9 6 5 7 9 8 2 8 13 17 19 22 25 23 23 24 27 26 24 27 29 30 30 32 33 33 34 32 31 33 33 33 32 30 28 27 25 22 18 15 11 8 6 5
9 8 8 10 8 8 9 14 12 12 17 18 20 20 21 22 21 22 22 23 26 27 29 29 30 31 32 33 31 28 28 28 26 24 21 19 17 15 13 11 9 6 4 2
20 18 22 21 7 9 12 10 9 8 12 14 17 17 20 22 21 17 16 14 17 22 23 22 24 24 23 26 27 25 22 22 19 16 15 14 11 8 8 7 4 3 4 4
24 25 22 23 16 17 18 11 9 6 6 10 12 14 15 15 15 13 12 12 12 15 18 18 18 18 17 16 16 15 13 14 13 12 10 8 9 8 6 6 4 3 4 6
13 12 15 8 8 11 10 11 10 7 4 5 9 9 10 11 11 11 12 11 11 12 13 15 13 12 12 11 13 12 12 10 10 9 9 8 6 5 5 4 4 5 7 9
Wind_Direction
8 10 3 357 344 325 311 306 307 317 319 307 300 291 289 276 267 262 260 248 239 238 237 240 241 236 238 245 242 246 246 243 241 237 238 235 239 239 238 239 240 241 245 249
1 2 349 330 321 319 318 315 321 319 318 311 312 303 309 304 295 279 265 260 256 246 239 229 237 238 243 236 242 243 247 243 245 246 241 233 240 242 242 242 244 246 247 244
352 347 344 332 327 319 314 320 323 313 319 311 313 311 5 339 343 327 342 286 263 253 245 234 229 232 236 233 231 241 244 243 244 247 242 235 235 237 240 242 242 247 250 251
347 343 336 328 323 328 317 322 315 312 312 308 304 296 336 2 32 14 341 319 271 248 249 237 230 233 234 239 229 233 239 241 242 244 245 246 234 236 247 244 248 250 253 253
348 350 339 330 322 325 315 316 306 309 300 299 314 237 306 330 333 337 345 353 328 269 256 245 227 227 231 235 233 228 231 238 241 243 243 243 242 236 231 237 247 247 252 251
355 356 350 333 325 314 310 315 317 315 304 264 299 264 293 303 321 327 332 332 331 312 283 271 255 231 226 228 232 234 226 230 236 240 237 238 242 238 228 231 241 247 249 253
356 360 352 343 329 343 320 343 326 340 355 225 283 312 270 286 298 307 310 327 323 308 290 273 269 239 230 225 229 234 235 221 233 237 234 234 239 238 227 237 238 244 247 252
334 341 347 334 338 318 321 337 293 294 288 293 299 233 322 311 269 299 301 307 308 302 284 266 258 252 233 230 225 231 235 233 236 240 235 230 235 239 233 228 238 241 247 251
334 309 342 331 333 332 337 326 321 270 279 269 254 275 295 282 289 289 289 300 309 306 292 256 252 246 244 233 229 231 230 232 236 240 243 237 233 235 239 229 238 240 244 250
322 303 336 348 338 333 324 331 336 333 299 294 279 287 282 307 312 310 306 313 310 308 297 259 242 239 239 238 234 234 234 232 235 238 240 240 242 238 238 234 234 242 242 248
327 299 318 345 338 343 351 344 323 306 256 291 322 283 315 326 315 314 312 314 310 307 296 273 240 236 232 238 235 229 234 232 231 233 238 243 248 239 237 241 236 233 238 245
331 301 297 331 5 322 323 317 328 277 309 288 262 282 311 325 326 325 322 318 311 303 290 273 252 229 228 228 225 221 221 223 227 233 234 236 247 240 237 246 236 234 240 242
327 301 310 349 336 314 318 337 338 318 305 268 278 287 326 337 332 331 326 323 316 308 297 270 248 218 216 218 223 226 227 225 228 230 227 234 238 233 243 239 232 235 244 232
324 295 287 265 297 310 307 339 355 334 287 301 304 320 343 345 338 334 332 329 325 313 297 277 230 201 202 215 211 224 219 221 218 215 219 223 229 232 239 225 228 241 228 219
321 305 309 311 308 315 317 319 344 341 328 299 324 326 336 343 342 339 337 337 339 334 295 200 176 176 189 199 207 197 208 207 208 200 210 218 225 233 238 224 216 216 210 189
316 302 316 332 322 326 310 315 337 349 353 345 339 333 346 355 353 358 356 357 2 17 70 114 144 146 152 176 194 203 225 198 200 213 214 218 226 216 225 226 199 195 174 169
315 314 326 293 327 328 308 336 336 338 10 350 345 343 354 1 5 5 7 14 22 47 84 109 132 148 165 178 190 203 208 204 202 208 227 216 215 197 177 162 153 153 155 150
303 301 312 302 339 356 321 338 339 350 9 356 351 356 359 5 15 11 16 26 41 69 94 106 118 141 159 159 166 169 163 181 188 211 189 168 150 144 141 144 142 147 143 138
297 294 317 300 308 297 70 348 349 349 1 358 351 357 360 9 28 28 29 33 49 68 88 102 122 127 134 126 141 133 121 135 142 139 134 133 134 133 134 139 142 137 128 129
292 296 279 298 300 246 344 346 351 341 334 350 350 357 5 5 27 30 34 44 52 69 81 89 102 107 108 110 112 117 118 123 123 123 126 127 130 139 140 131 125 131 145 137
280 280 254 258 262 281 333 349 353 4 330 349 351 1 16 10 22 32 38 51 66 78 83 85 90 96 95 99 110 117 120 123 124 125 130 137 133 128 125 127 134 132 131 139
271 267 243 221 231 273 262 338 340 325 339 351 356 8 23 26 19 36 49 59 68 78 82 84 89 95 102 106 108 110 114 118 123 126 128 130 130 133 138 135 143 151 152 166
258 243 252 238 260 256 280 305 305 325 338 358 4 11 19 31 34 35 48 66 76 82 86 88 90 95 100 102 104 107 113 118 123 126 127 128 132 141 147 148 155 151 161 215
286 275 258 272 294 292 268 269 272 313 330 355 4 16 23 28 32 39 47 68 75 87 96 100 102 99 106 110 115 119 113 114 119 125 133 133 134 138 139 140 155 193 224 246
293 277 270 282 286 263 253 252 250 279 318 336 2 18 25 33 36 42 55 71 96 102 99 95 100 105 98 97 110 123 121 115 123 131 142 134 137 146 164 178 201 236 262 286
303 280 264 281 269 251 239 231 239 251 273 318 350 8 25 34 44 52 60 64 76 90 105 111 112 105 102 104 118 126 130 125 127 143 141 149 162 172 184 209 237 266 293 302